Date,TemperatureHighF,TemperatureAvgF,TemperatureLowF,DewpointHighF,DewpointAvgF,DewpointLowF,HumidityHigh,HumidityAvg,HumidityLow,PressureMaxIn,PressureMinIn,WindSpeedMaxMPH,WindSpeedAvgMPH,GustSpeedMaxMPH,PrecipitationSumIn
2013-1-1,57.7,47.1,38.1,48.6,42.0,34.1,91,83,64,30.15,30.06,7,3,12,0.08
2013-1-2,56.2,51.8,47.7,48.8,47.0,45.2,92,84,73,30.26,30.03,12,4,23,0.17
2013-1-3,61.1,52.0,46.0,46.9,44.3,40.9,87,76,57,30.49,30.26,10,5,17,0.00
2013-1-4,59.2,49.7,41.2,48.6,43.3,38.6,91,79,64,30.48,30.29,8,3,12,0.00
2013-1-5,57.5,48.5,41.6,47.8,43.3,38.8,92,83,70,30.29,30.08,9,3,16,0.00
2013-1-6,59.4,48.4,40.7,51.2,44.2,38.5,93,86,71,30.21,30.07,10,3,12,0.00
2013-1-7,62.4,51.1,43.6,49.2,45.6,41.2,93,82,61,30.21,30.05,10,3,14,0.00
2013-1-8,54.9,48.0,41.2,46.9,43.2,37.6,91,84,73,30.28,30.20,7,2,9,0.00
2013-1-9,55.7,50.9,45.5,46.5,45.1,42.8,91,81,68,30.20,30.10,5,1,8,0.00
2013-1-10,53.0,51.2,48.0,48.9,46.4,42.9,94,84,70,30.10,29.81,10,3,20,0.23
2013-1-11,56.2,47.7,41.2,51.1,44.3,40.1,97,89,67,29.85,29.67,17,4,35,0.02
2013-1-12,56.5,48.4,40.0,48.6,43.4,38.1,93,83,72,30.01,29.84,7,2,13,0.00
2013-1-13,56.9,52.0,47.8,52.6,48.4,44.5,94,88,81,30.00,29.73,17,7,36,0.60
2013-1-14,56.0,53.1,48.7,51.8,47.0,41.0,94,80,68,29.89,29.70,16,6,29,0.09
2013-1-15,54.7,48.2,44.0,44.2,41.2,38.0,89,77,55,29.89,29.55,10,4,21,0.03
2013-1-16,49.3,43.7,40.2,44.4,40.2,37.3,93,88,67,29.55,29.41,14,5,26,0.79
2013-1-17,50.4,42.9,38.4,45.7,39.5,35.4,92,88,79,29.43,29.27,16,5,25,0.09
2013-1-18,48.6,42.7,38.3,38.0,35.3,32.1,93,76,59,29.62,29.34,21,7,35,0.02
2013-1-19,53.8,43.4,34.9,52.1,39.3,31.5,94,85,81,29.63,29.49,17,7,35,0.07
2013-1-20,58.8,56.8,54.0,56.6,54.3,51.2,95,91,84,29.50,29.42,18,11,35,0.15
2013-1-21,55.8,51.9,46.7,51.7,47.3,41.8,94,85,61,29.52,29.37,16,5,27,0.13
2013-1-22,55.5,50.4,42.9,46.6,41.0,36.4,90,71,52,29.77,29.51,17,5,27,0.00
2013-1-23,50.5,46.9,43.3,45.9,42.7,39.0,91,85,78,29.78,29.54,14,5,26,0.30
2013-1-24,55.0,47.4,43.3,46.5,42.2,38.1,94,83,65,29.54,29.38,10,4,18,0.13
2013-1-25,53.9,46.3,39.6,41.2,37.3,33.6,89,72,56,29.63,29.42,16,8,26,0.00
2013-1-26,52.2,44.2,38.7,34.2,32.2,29.8,76,63,49,29.85,29.62,12,6,18,0.00
2013-1-27,54.6,42.4,34.6,40.5,33.5,28.8,82,71,53,29.97,29.85,10,3,15,0.00
2013-1-28,50.4,47.0,41.6,46.8,42.5,35.5,93,85,67,30.03,29.79,13,7,25,0.32
2013-1-29,58.5,48.4,41.1,45.6,42.6,38.1,92,81,60,30.23,30.03,12,3,15,0.00
2013-1-30,61.3,50.2,41.0,51.2,44.5,38.6,92,82,56,30.22,30.14,8,3,12,0.00
2013-1-31,64.7,55.0,47.2,53.9,50.1,44.4,95,84,63,30.18,30.10,10,3,15,0.00
2013-2-1,60.2,54.2,47.4,54.3,50.6,44.9,95,88,76,30.14,29.70,13,5,24,0.00
2013-2-2,59.9,55.1,51.8,54.2,49.9,39.8,93,83,62,29.70,29.24,20,11,33,0.05
2013-2-3,54.1,48.8,44.3,43.0,38.3,28.2,89,68,51,29.94,29.30,15,6,26,0.04
2013-2-4,57.1,46.2,37.3,38.6,31.6,22.3,75,58,30,30.13,29.94,13,4,15,0.00
2013-2-5,53.5,48.8,41.9,49.7,43.3,36.5,94,82,72,30.11,29.76,12,4,22,0.02
2013-2-6,55.3,50.3,43.5,48.9,42.1,33.9,94,75,48,29.77,29.48,18,6,31,0.05
2013-2-7,50.5,44.2,40.4,43.7,39.9,35.9,94,85,69,29.55,29.43,13,5,20,0.55
2013-2-8,52.8,45.2,40.3,36.6,32.5,28.0,81,62,47,29.73,29.54,16,7,22,0.00
2013-2-9,49.7,42.3,36.8,34.9,27.5,23.9,81,57,41,29.86,29.72,14,6,25,0.00
2013-2-10,49.8,40.8,33.5,27.8,23.5,11.7,75,52,23,29.93,29.85,10,3,20,0.00
2013-2-11,54.8,45.7,38.4,47.9,37.9,21.8,93,75,45,29.93,29.51,22,9,35,0.60
2013-2-12,56.3,48.4,42.9,46.8,43.7,41.3,94,85,65,29.67,29.52,7,2,13,0.00
2013-2-13,55.7,46.1,39.3,42.4,37.3,34.3,92,73,48,29.79,29.65,12,4,22,0.00
2013-2-14,58.0,46.7,38.5,41.3,36.7,33.8,83,69,46,29.97,29.80,12,5,16,0.00
2013-2-15,55.8,45.9,37.6,40.6,37.8,34.1,92,74,50,29.99,29.93,6,1,9,0.00
2013-2-16,58.4,47.7,39.4,43.4,39.3,35.7,88,73,47,30.04,29.96,10,3,17,0.00
2013-2-17,53.7,44.9,39.2,44.2,39.1,35.1,87,80,69,30.04,29.95,12,2,20,0.55
2013-2-18,54.4,45.0,39.2,42.9,38.8,36.5,94,80,59,29.98,29.92,8,3,15,0.01
2013-2-19,56.3,45.3,36.5,38.2,34.9,31.5,86,68,39,29.99,29.91,10,3,15,0.00
2013-2-20,55.1,45.4,35.7,41.2,36.7,31.6,85,72,54,29.97,29.88,7,2,12,0.00
2013-2-21,57.1,47.0,37.4,44.7,39.4,34.2,89,75,53,29.89,29.65,9,2,12,0.01
2013-2-22,54.9,51.0,47.2,50.9,47.3,44.6,92,87,75,29.65,29.41,13,6,24,0.03
2013-2-23,56.1,49.6,41.3,54.1,45.6,39.4,94,86,70,29.59,29.37,23,8,41,0.31
2013-2-24,49.9,45.3,39.8,41.2,36.8,31.7,87,73,52,29.90,29.59,17,5,28,0.12
2013-2-25,44.7,41.9,39.3,40.1,38.1,34.9,93,86,76,30.02,29.90,15,5,23,0.40
2013-2-26,55.4,46.1,38.6,42.8,39.5,36.3,92,78,59,30.10,30.00,7,2,9,0.00
2013-2-27,56.7,47.8,39.0,42.0,37.5,35.1,90,69,49,30.18,30.10,13,3,18,0.00
2013-2-28,59.3,48.4,37.9,45.0,39.8,33.8,87,73,53,30.21,30.11,8,3,16,0.00
2013-3-1,55.7,50.6,44.8,42.9,40.9,38.9,83,70,59,30.11,29.83,9,4,13,0.00
2013-3-2,62.0,54.5,49.3,45.4,40.6,33.4,81,61,42,29.97,29.76,12,6,20,0.00
2013-3-3,62.1,51.0,41.9,48.2,41.2,33.5,90,70,57,30.04,29.97,8,3,15,0.00
2013-3-4,59.9,50.5,41.4,48.5,43.4,39.3,92,78,58,30.17,30.04,9,2,16,0.00
2013-3-5,58.4,51.6,42.8,45.8,41.7,35.1,90,70,43,30.17,29.92,9,3,17,0.02
2013-3-6,61.1,56.7,54.4,55.7,48.1,39.0,96,75,48,29.92,29.67,23,10,40,0.26
2013-3-7,61.9,57.6,55.6,57.6,55.3,54.2,96,92,81,29.76,29.67,10,4,17,0.02
2013-3-8,59.7,56.9,55.2,56.0,54.3,52.9,95,91,83,29.75,29.61,15,6,30,0.05
2013-3-9,65.2,58.1,52.2,56.1,52.9,48.7,97,84,57,29.76,29.65,13,5,23,0.01
2013-3-10,62.3,56.8,52.2,55.6,51.7,47.4,95,84,64,29.68,29.50,16,5,29,0.46
2013-3-11,61.2,56.2,48.9,54.3,51.2,45.0,94,83,70,29.59,29.52,15,4,25,0.23
2013-3-12,58.7,50.8,46.3,53.4,47.6,44.2,96,89,80,29.58,29.48,14,4,25,0.33
2013-3-13,54.5,48.9,44.6,51.6,46.6,43.0,95,92,84,29.51,29.25,9,3,20,0.20
2013-3-14,58.5,49.6,43.4,47.2,41.7,36.4,96,76,53,29.27,29.10,17,5,29,0.01
2013-3-15,55.5,47.5,42.6,36.9,31.9,27.3,72,56,39,29.85,29.27,15,4,25,0.00
2013-3-16,53.9,44.7,37.3,37.3,31.1,26.7,72,59,42,30.10,29.85,9,2,15,0.00
2013-3-17,52.1,48.6,41.3,46.2,39.6,33.5,86,71,59,30.09,29.73,17,8,36,0.01
2013-3-18,57.9,54.7,50.4,55.5,50.1,45.5,94,85,67,29.73,29.48,23,13,40,0.12
2013-3-19,59.2,54.6,49.0,48.1,46.0,44.5,86,73,61,29.79,29.65,20,7,27,0.00
2013-3-20,57.8,50.8,45.4,49.0,45.1,40.4,93,81,59,29.78,29.64,12,4,21,0.20
2013-3-21,62.9,54.3,47.1,50.5,43.6,34.7,94,70,36,29.94,29.64,20,6,27,0.00
2013-3-22,65.3,53.0,41.5,49.4,42.9,31.0,90,71,30,29.93,29.85,10,2,15,0.00
2013-3-23,61.9,53.5,44.9,51.7,48.1,42.4,92,83,64,29.92,29.75,10,3,20,0.00
2013-3-24,70.4,59.5,49.1,50.7,46.6,38.6,94,65,33,29.75,29.40,18,5,30,0.00
2013-3-25,60.7,55.3,48.7,54.5,49.5,40.8,94,81,67,29.52,29.27,16,3,24,0.43
2013-3-26,55.6,50.7,46.8,51.6,47.1,40.5,95,87,74,29.56,29.49,8,2,18,0.35
2013-3-27,61.9,54.0,46.5,52.4,48.6,44.6,94,83,56,29.79,29.56,9,2,13,0.00
2013-3-28,59.5,55.0,51.5,55.6,52.0,48.8,94,90,85,29.86,29.78,10,3,21,0.07
2013-3-29,62.8,58.8,56.0,56.6,55.0,53.6,94,87,74,29.86,29.75,13,6,22,0.00
2013-3-30,61.5,58.0,55.9,56.3,54.5,51.8,95,88,80,29.75,29.45,20,10,31,0.04
2013-3-31,60.1,56.1,51.6,54.0,50.6,46.3,95,82,71,29.65,29.44,18,7,29,0.20
2013-4-1,61.3,55.5,50.7,52.1,48.3,45.4,94,77,60,29.70,29.49,15,6,30,0.13
2013-4-2,58.8,55.2,51.2,55.9,52.8,49.2,96,92,84,29.55,29.40,13,4,24,0.57
2013-4-3,61.7,55.6,50.8,51.2,48.6,44.2,94,78,55,29.75,29.55,12,2,17,0.02
2013-4-4,64.9,56.1,47.5,51.3,47.4,42.1,91,74,44,29.77,29.48,14,5,29,0.00
2013-4-5,62.9,57.1,53.0,55.3,51.5,46.5,95,82,57,29.76,29.42,17,5,33,0.05
2013-4-6,65.4,57.1,49.3,55.7,51.2,46.5,91,81,58,29.78,29.72,12,2,21,0.00
2013-4-7,68.9,60.1,53.2,52.8,47.3,38.2,87,65,44,29.75,29.62,16,6,26,0.00
2013-4-8,63.0,54.7,47.9,49.6,42.4,37.3,85,64,45,29.85,29.75,13,4,20,0.00
2013-4-9,63.7,57.4,52.9,53.3,50.9,45.3,93,80,57,29.90,29.80,9,4,18,0.00
2013-4-10,64.4,58.5,53.4,55.2,52.4,49.6,89,80,66,29.99,29.86,9,3,22,0.00
2013-4-11,66.4,58.1,49.7,54.8,49.5,45.7,91,75,49,30.03,29.98,9,2,18,0.00
2013-4-12,66.2,60.1,55.9,57.0,54.6,52.5,92,83,66,30.00,29.92,16,8,30,0.00
2013-4-13,71.3,61.1,54.1,56.2,54.0,49.1,94,79,47,30.25,30.00,9,2,15,0.00
2013-4-14,74.2,62.9,51.6,55.7,51.2,46.6,93,68,43,30.31,30.24,8,2,14,0.00
2013-4-15,73.8,62.8,53.8,57.8,52.7,48.4,94,72,42,30.25,30.12,8,2,15,0.00
2013-4-16,73.3,62.4,53.1,60.8,54.7,47.8,97,79,41,30.15,30.10,9,2,15,0.02
2013-4-17,74.0,63.6,54.6,58.4,54.3,40.0,94,75,31,30.19,30.13,8,1,12,0.00
2013-4-18,75.8,64.4,54.4,58.9,54.2,47.4,96,73,38,30.16,30.03,7,2,13,0.01
2013-4-19,74.8,64.9,56.9,62.7,56.1,44.8,96,75,40,30.04,29.92,9,1,14,0.00
2013-4-20,63.9,59.3,53.0,58.4,51.7,47.2,96,77,61,30.02,29.94,10,3,16,0.00
2013-4-21,63.5,57.0,50.8,51.9,46.9,41.6,88,71,48,30.02,29.93,10,2,17,0.09
2013-4-22,56.3,52.5,49.5,51.9,48.2,43.8,91,85,69,30.01,29.86,9,3,17,0.33
2013-4-23,66.1,58.3,50.6,53.2,49.8,46.9,92,74,55,30.24,30.01,8,1,12,0.09
2013-4-24,76.6,65.3,54.9,54.7,51.0,48.3,83,62,39,30.31,30.23,9,3,14,0.00
2013-4-25,79.8,69.2,59.9,57.9,52.5,46.1,79,57,35,30.26,30.09,9,3,15,0.00
2013-4-26,68.5,64.2,59.4,61.2,56.1,51.7,88,75,63,30.13,29.94,10,2,21,0.04
2013-4-27,64.5,60.8,54.7,59.2,56.3,51.5,93,85,76,29.94,29.75,14,6,29,0.02
2013-4-28,76.2,67.6,58.7,59.7,57.1,53.2,95,71,45,29.95,29.83,8,2,20,0.00
2013-4-29,83.3,74.2,64.3,59.3,52.2,44.0,72,48,31,30.00,29.93,14,4,25,0.00
2013-4-30,84.1,73.4,66.9,58.9,53.1,43.7,63,50,31,30.06,29.97,14,4,24,0.00
2013-5-1,78.0,69.9,63.5,60.3,55.7,47.1,84,62,37,30.05,29.97,16,3,27,0.05
2013-5-2,74.7,67.1,62.2,64.5,60.7,57.7,93,81,61,30.01,29.90,13,3,20,0.15
2013-5-3,80.8,68.8,58.7,61.7,57.8,54.1,89,70,43,29.95,29.88,15,4,23,0.00
2013-5-4,80.9,70.4,61.4,63.5,58.5,52.9,87,67,45,29.97,29.89,9,2,15,0.00
2013-5-5,72.4,65.8,62.0,62.9,58.7,53.1,91,78,59,30.00,29.93,10,2,16,0.16
2013-5-6,65.9,61.6,59.4,62.7,59.1,56.6,95,92,86,29.96,29.87,8,2,14,0.37
2013-5-7,69.5,63.3,59.1,63.3,59.1,57.1,95,87,69,30.01,29.95,9,2,15,0.10
2013-5-8,72.6,65.1,57.0,60.9,57.3,53.8,93,77,59,29.97,29.90,9,2,14,0.00
2013-5-9,77.1,66.9,58.4,60.9,58.2,54.7,92,75,52,29.98,29.92,9,2,15,0.00
2013-5-10,71.4,65.7,61.0,63.6,60.8,58.9,95,85,68,29.96,29.91,8,1,14,0.00
2013-5-11,70.5,64.6,59.0,61.1,58.9,56.4,96,83,65,29.93,29.83,9,2,17,0.00
2013-5-12,70.1,63.4,56.5,59.5,56.6,54.0,92,79,62,29.88,29.82,18,4,25,0.00
2013-5-13,74.6,65.1,57.3,57.1,52.3,40.3,88,66,30,29.97,29.87,18,5,30,0.00
2013-5-14,74.5,64.8,53.8,59.1,52.3,45.2,87,65,37,29.99,29.87,7,2,15,0.00
2013-5-15,69.0,62.4,55.0,59.6,56.3,51.9,93,81,57,29.86,29.67,14,3,27,0.00
2013-5-16,73.3,66.9,60.2,61.6,57.4,51.6,90,73,56,29.67,29.50,18,6,41,0.11
2013-5-17,67.4,63.5,57.9,62.5,56.8,49.1,94,79,54,29.90,29.54,12,4,22,0.11
2013-5-18,77.6,67.1,57.5,59.0,54.3,49.4,88,66,40,29.97,29.80,10,3,24,0.00
2013-5-19,69.5,65.3,58.7,59.8,54.1,47.2,85,68,48,30.05,29.79,15,5,21,0.00
2013-5-20,69.5,62.7,56.0,55.7,51.6,46.8,88,68,45,30.10,30.05,9,2,17,0.00
2013-5-21,69.1,62.4,55.7,56.2,52.2,47.1,90,70,48,30.08,29.82,8,2,15,0.13
2013-5-22,75.8,64.0,58.7,63.8,58.5,55.3,92,83,57,29.81,29.38,15,6,23,0.69
2013-5-23,66.6,61.3,57.7,58.7,57.0,54.5,94,86,66,29.67,29.43,13,3,21,0.19
2013-5-24,64.6,60.9,57.1,56.0,51.0,45.1,91,71,54,29.88,29.64,23,7,43,0.00
2013-5-25,64.0,59.0,55.1,49.8,46.8,41.8,76,64,47,29.87,29.80,20,6,36,0.00
2013-5-26,66.1,59.3,51.8,51.3,48.1,44.8,85,67,49,30.00,29.80,13,3,20,0.01
2013-5-27,67.6,60.6,53.3,55.6,51.2,41.3,86,72,43,30.01,29.90,12,3,20,0.00
2013-5-28,74.3,64.3,57.8,57.2,52.1,45.0,84,67,38,29.92,29.67,10,3,15,0.00
2013-5-29,67.3,61.9,56.7,59.6,53.9,47.3,91,76,50,29.75,29.68,15,3,24,0.00
2013-5-30,63.5,58.6,53.1,55.1,51.3,48.7,90,77,61,29.75,29.70,17,5,27,0.10
2013-5-31,65.4,59.7,52.8,55.8,52.2,49.7,92,77,62,29.75,29.69,16,5,28,0.02
2013-6-1,67.8,60.8,56.5,58.6,54.7,51.7,93,81,64,29.79,29.69,9,2,20,0.40
2013-6-2,70.9,63.1,55.4,60.7,57.5,52.5,94,83,64,29.94,29.77,8,2,14,0.01
2013-6-3,72.7,64.2,56.9,60.8,57.4,53.7,95,80,58,29.94,29.89,10,2,17,0.00
2013-6-4,73.6,65.4,59.1,61.3,58.6,56.3,91,80,57,29.99,29.90,10,2,20,0.00
2013-6-5,74.0,67.1,60.7,63.0,60.0,55.2,95,79,56,30.04,29.95,9,2,20,0.00
2013-6-6,76.4,67.6,58.8,63.7,58.9,55.3,94,75,55,30.06,29.99,9,2,14,0.00
2013-6-7,80.2,71.0,63.2,61.6,59.0,53.7,83,67,44,30.02,29.95,16,4,23,0.00
2013-6-8,80.0,70.9,62.6,63.2,60.5,57.5,91,71,50,29.98,29.92,9,2,14,0.00
2013-6-9,75.1,67.7,61.3,67.0,60.3,53.3,93,78,51,29.96,29.85,12,3,20,0.01
2013-6-10,72.8,67.3,63.1,62.5,59.7,54.3,95,78,58,29.89,29.84,9,2,21,0.00
2013-6-11,74.6,68.5,61.5,61.4,59.3,57.1,90,74,56,29.93,29.87,15,4,23,0.00
2013-6-12,85.4,74.8,63.5,61.8,56.5,48.5,87,57,29,29.99,29.92,14,3,21,0.00
2013-6-13,87.5,75.8,66.1,60.4,53.7,48.2,65,48,26,30.03,29.94,13,4,21,0.00
2013-6-14,84.0,75.0,66.3,60.9,56.5,52.6,77,54,38,30.02,29.97,15,3,20,0.00
2013-6-15,82.6,73.6,63.6,66.7,63.2,60.4,90,71,52,30.04,30.00,8,1,14,0.00
2013-6-16,83.6,75.1,64.6,67.6,64.0,60.3,87,70,52,30.06,30.01,6,1,12,0.00
2013-6-17,87.6,77.8,67.4,67.8,63.6,58.0,89,64,39,30.04,29.97,9,2,15,0.00
2013-6-18,88.6,80.0,68.9,70.9,64.8,61.6,79,61,42,29.99,29.96,10,2,17,0.00
2013-6-19,92.4,82.4,70.8,68.9,64.9,60.3,80,57,35,30.00,29.96,9,1,14,0.00
2013-6-20,90.8,80.4,70.1,70.5,66.0,60.1,88,64,39,30.00,29.95,9,2,16,0.00
2013-6-21,84.8,77.4,69.8,70.4,66.8,62.2,91,72,48,30.01,29.97,8,2,18,0.00
2013-6-22,83.0,75.2,67.5,68.3,64.1,58.6,86,70,44,30.03,29.96,9,2,14,0.00
2013-6-23,84.6,74.2,65.5,66.8,64.1,58.3,91,72,42,30.02,29.92,13,3,22,0.00
2013-6-24,73.8,69.5,64.7,64.6,61.5,56.5,88,76,57,29.93,29.86,13,4,21,0.00
2013-6-25,78.7,70.9,62.4,62.7,57.0,51.2,84,63,41,30.01,29.92,20,6,26,0.00
2013-6-26,78.2,70.0,61.8,62.7,58.0,52.7,89,67,42,30.06,29.99,17,3,24,0.00
2013-6-27,78.5,69.3,60.3,60.1,56.3,51.5,82,65,41,30.06,30.00,13,3,22,0.00
2013-6-28,77.0,69.0,61.4,63.4,58.6,53.0,92,71,45,30.03,29.93,16,4,29,0.00
2013-6-29,80.1,69.9,59.2,57.0,53.3,48.3,84,58,34,30.00,29.92,15,5,26,0.00
2013-6-30,79.6,71.3,62.3,61.0,52.1,46.4,81,52,34,30.06,29.99,10,3,16,0.00
2013-7-1,80.8,72.2,61.9,60.8,56.7,50.7,83,60,39,30.09,30.04,12,2,17,0.00
2013-7-2,83.5,74.8,64.6,60.9,56.9,51.9,74,55,36,30.08,30.01,10,2,16,0.00
2013-7-3,81.6,72.8,63.5,66.6,59.6,51.3,90,66,36,30.04,29.95,10,2,16,0.00
2013-7-4,80.4,72.3,65.2,67.8,63.1,55.0,92,75,45,30.03,29.93,10,3,15,0.28
2013-7-5,91.1,77.4,66.2,66.1,62.2,54.2,92,63,31,30.05,30.00,10,3,16,0.00
2013-7-6,90.3,79.3,72.0,68.4,59.5,52.6,78,53,31,30.06,30.01,14,3,26,0.08
2013-7-7,88.9,76.7,70.3,68.4,63.6,59.3,88,66,38,30.06,29.99,13,3,20,0.07
2013-7-8,89.3,75.7,66.7,68.7,64.6,61.0,89,71,42,30.08,30.02,9,2,16,0.01
2013-7-9,85.9,76.1,66.9,66.3,64.2,61.4,89,68,45,30.08,29.96,12,2,20,0.00
2013-7-10,85.7,76.0,66.6,70.9,65.1,61.3,85,70,45,29.97,29.84,12,2,20,0.00
2013-7-11,84.8,77.2,69.4,72.0,66.9,62.6,87,72,55,29.92,29.84,10,2,18,0.00
2013-7-12,85.8,78.6,70.3,71.7,66.5,62.6,89,68,47,30.00,29.92,12,3,18,0.00
2013-7-13,84.7,78.1,68.5,70.8,68.2,63.6,95,73,53,30.02,29.97,10,2,16,0.00
2013-7-14,87.3,79.3,70.6,70.2,67.8,64.8,89,69,49,30.00,29.93,15,3,22,0.00
2013-7-15,85.8,78.3,70.9,71.4,67.0,64.4,87,69,50,30.01,29.97,9,2,16,0.00
2013-7-16,87.0,79.1,70.4,69.3,65.9,61.8,91,66,45,30.07,30.00,10,2,18,0.00
2013-7-17,89.1,79.1,71.5,72.5,67.6,58.4,88,69,36,30.06,29.99,9,2,18,0.00
2013-7-18,84.3,78.2,71.5,72.5,70.0,66.3,91,77,62,30.04,30.00,12,2,22,0.00
2013-7-19,82.8,76.0,71.0,71.8,68.6,64.4,91,78,65,30.05,29.97,10,1,16,0.09
2013-7-20,85.9,76.6,67.3,69.7,65.4,61.9,87,70,46,29.99,29.92,10,3,16,0.00
2013-7-21,89.5,75.9,65.9,69.7,65.6,60.1,91,73,42,30.03,29.93,24,2,37,0.74
2013-7-22,90.9,77.1,66.7,72.0,65.8,60.1,89,70,37,29.99,29.91,10,2,17,0.00
2013-7-23,91.9,80.6,70.5,73.3,67.4,57.8,91,68,34,29.94,29.89,12,2,20,0.00
2013-7-24,90.7,81.0,71.4,73.7,69.0,58.6,94,70,35,30.02,29.93,14,3,22,0.00
2013-7-25,88.0,80.0,72.2,74.2,71.0,67.2,92,75,57,30.02,29.98,8,1,15,0.00
2013-7-26,90.9,81.9,72.8,73.5,70.3,64.3,94,70,45,30.00,29.93,12,2,20,0.00
2013-7-27,94.5,83.4,74.8,71.7,69.0,65.3,82,64,41,29.94,29.91,13,2,20,0.00
2013-7-28,94.9,84.1,74.3,72.1,67.2,59.8,85,60,33,30.03,29.94,9,2,14,0.00
2013-7-29,91.9,82.7,73.7,77.6,67.4,57.8,92,63,33,30.04,29.97,12,3,20,0.00
2013-7-30,88.5,81.2,75.9,75.7,66.6,59.5,93,63,39,29.99,29.91,18,6,25,0.00
2013-7-31,90.3,81.3,73.9,69.5,62.3,54.4,77,54,30,29.94,29.88,15,4,24,0.00
2013-8-1,93.3,81.1,74.6,69.8,60.3,53.5,81,51,28,29.98,29.92,14,4,22,0.00
2013-8-2,90.3,81.8,73.2,72.9,66.6,62.2,81,62,42,30.03,29.96,9,2,16,0.00
2013-8-3,94.0,83.1,74.6,69.3,66.5,61.3,78,59,39,30.04,29.99,14,4,21,0.00
2013-8-4,96.0,85.0,74.6,68.5,64.0,54.3,72,52,25,30.05,29.99,13,3,20,0.00
2013-8-5,95.8,84.1,73.0,68.8,62.4,55.9,70,50,29,30.01,29.93,12,2,16,0.00
2013-8-6,94.8,85.0,75.5,72.6,67.4,59.3,76,57,40,29.97,29.91,8,1,15,0.00
2013-8-7,95.4,84.4,71.7,72.3,65.5,56.5,83,56,28,29.93,29.88,8,1,15,0.00
2013-8-8,96.7,85.9,74.1,68.1,58.7,51.0,62,42,23,29.94,29.89,8,2,15,0.00
2013-8-9,90.3,79.6,72.4,66.9,62.7,56.7,81,57,39,29.92,29.80,18,5,34,0.00
2013-8-10,91.5,80.2,70.9,68.6,63.5,57.9,83,59,34,29.89,29.78,16,2,21,0.00
2013-8-11,89.8,80.1,72.1,68.1,63.3,58.1,75,58,36,29.92,29.87,10,3,16,0.00
2013-8-12,89.6,80.6,71.7,68.3,61.0,53.6,79,53,31,29.97,29.91,12,3,18,0.00
2013-8-13,89.3,79.4,69.5,69.6,63.8,56.1,82,61,35,29.97,29.92,9,2,16,0.00
2013-8-14,86.8,78.7,69.6,71.4,67.2,62.8,92,70,45,29.94,29.88,9,2,16,0.00
2013-8-15,89.2,80.4,73.3,71.5,65.3,61.8,86,62,42,30.00,29.91,10,3,15,0.00
2013-8-16,88.0,79.7,71.8,72.9,64.6,58.0,77,60,47,30.01,29.95,9,4,16,0.00
2013-8-17,89.9,79.8,70.9,69.6,63.4,57.9,80,60,37,30.01,29.96,10,2,17,0.00
2013-8-18,88.9,78.5,70.1,71.5,64.9,60.2,87,65,41,30.05,29.99,10,2,17,0.00
2013-8-19,87.7,78.4,69.8,72.5,68.6,61.9,90,73,44,30.03,29.94,13,3,20,0.00
2013-8-20,82.5,74.7,71.2,71.0,66.5,61.6,91,76,57,29.96,29.89,12,3,27,0.54
2013-8-21,89.1,77.5,69.3,64.2,61.4,57.4,76,59,36,29.96,29.91,13,4,22,0.00
2013-8-22,87.4,77.1,69.1,69.1,63.8,59.6,82,64,46,29.96,29.91,10,2,15,0.00
2013-8-23,87.3,77.5,67.1,69.3,64.7,60.3,90,67,42,29.97,29.92,13,2,21,0.00
2013-8-24,86.3,77.1,69.2,71.2,67.0,62.0,85,72,49,29.98,29.87,9,2,18,0.00
2013-8-25,80.3,74.5,67.8,70.8,68.8,63.0,94,83,58,29.89,29.75,14,4,26,0.98
2013-8-26,80.5,75.1,69.7,71.1,66.7,63.2,88,76,63,29.86,29.80,13,3,22,0.03
2013-8-27,79.3,72.9,66.0,70.4,67.4,62.9,93,83,69,29.88,29.80,14,2,25,1.42
2013-8-28,80.4,73.5,68.2,69.1,65.5,62.3,92,77,59,29.96,29.82,10,2,16,0.02
2013-8-29,83.2,74.1,66.5,68.5,65.1,59.7,88,75,48,30.05,29.95,8,1,15,0.00
2013-8-30,83.5,75.0,68.1,67.9,65.2,62.1,88,73,53,30.04,29.95,10,2,17,0.00
2013-8-31,81.8,74.8,68.0,68.6,65.3,61.3,84,73,60,30.03,29.97,12,3,20,0.00
2013-9-1,84.7,75.1,66.4,67.2,61.5,53.5,85,64,41,30.05,29.99,8,2,20,0.00
2013-9-2,85.2,75.1,66.7,66.7,62.6,55.5,85,67,38,30.13,30.04,9,2,14,0.00
2013-9-3,84.7,75.6,67.5,69.4,64.8,59.4,84,70,55,30.17,30.12,8,2,13,0.00
2013-9-4,89.6,77.5,67.5,69.1,63.6,55.9,87,65,34,30.17,30.08,10,2,15,0.00
2013-9-5,87.6,76.7,67.7,68.4,63.1,56.9,80,64,38,30.09,29.94,14,2,22,0.00
2013-9-6,87.9,77.8,68.5,68.6,64.5,59.6,80,65,39,29.95,29.88,9,2,16,0.00
2013-9-7,88.6,77.6,69.0,70.4,65.9,61.0,85,69,42,30.08,29.94,13,1,18,0.00
2013-9-8,85.7,76.4,68.7,72.4,69.1,65.6,91,79,58,30.15,30.07,9,1,14,0.00
2013-9-9,82.6,75.8,72.2,73.4,67.6,59.6,92,77,57,30.12,30.04,12,3,20,0.01
2013-9-10,76.7,71.8,67.5,66.0,64.1,61.9,91,77,63,30.07,29.94,9,3,18,0.13
2013-9-11,77.1,71.6,65.9,68.0,63.9,59.3,93,77,60,29.99,29.92,13,4,22,0.12
2013-9-12,74.9,70.4,64.7,61.0,58.3,54.5,79,66,55,29.97,29.90,13,3,23,0.00
2013-9-13,79.3,69.1,61.2,60.9,58.1,54.1,84,69,44,30.09,29.94,12,2,18,0.00
2013-9-14,77.8,69.2,60.9,62.1,58.4,53.6,85,70,45,30.11,30.04,9,2,14,0.00
2013-9-15,73.1,67.1,62.6,67.3,62.3,57.8,93,85,70,30.06,29.81,10,2,21,0.24
2013-9-16,76.5,68.7,61.6,65.5,61.1,58.8,92,78,60,29.81,29.71,14,3,21,0.01
2013-9-17,75.0,69.3,62.3,63.6,59.5,50.9,87,72,44,29.71,29.60,17,5,28,0.00
2013-9-18,74.6,66.4,58.0,61.2,58.4,54.7,89,76,57,29.76,29.70,14,2,22,0.00
2013-9-19,76.4,69.6,64.5,66.2,62.8,60.2,91,80,65,29.82,29.68,9,3,17,0.00
2013-9-20,83.2,71.0,62.2,63.3,60.3,57.3,87,70,43,30.01,29.82,7,2,14,0.00
2013-9-21,81.7,72.1,64.0,64.8,61.6,58.8,85,71,52,30.10,30.01,13,3,20,0.00
2013-9-22,81.5,71.9,65.4,62.1,58.6,49.4,77,64,33,30.17,30.10,16,5,21,0.00
2013-9-23,76.7,70.3,61.8,61.9,57.9,49.6,82,65,50,30.14,30.07,8,3,16,0.00
2013-9-24,78.5,68.2,58.9,63.7,59.9,55.4,89,76,52,30.07,30.01,10,1,15,0.00
2013-9-25,77.7,67.9,59.4,64.8,60.6,55.6,92,78,54,30.04,29.98,8,2,14,0.00
2013-9-26,80.5,70.1,61.4,65.3,61.9,57.6,89,76,54,30.02,29.95,7,1,12,0.00
2013-9-27,79.7,70.3,62.6,64.6,61.8,58.5,91,76,50,29.99,29.94,8,1,13,0.00
2013-9-28,79.9,69.6,61.9,66.9,63.7,59.4,93,82,63,29.96,29.89,8,2,15,0.00
2013-9-29,76.5,71.9,68.7,69.6,67.3,65.3,93,85,78,29.90,29.66,12,6,26,0.09
2013-9-30,78.8,69.5,64.5,69.2,63.9,59.4,94,83,58,29.67,29.57,14,2,23,0.05
2013-10-1,77.2,68.0,61.0,64.3,61.3,59.2,94,80,56,29.78,29.65,12,2,17,0.01
2013-10-2,80.9,69.6,61.6,64.2,61.0,57.2,89,75,49,30.03,29.77,7,1,13,0.00
2013-10-3,77.6,67.7,61.9,63.2,56.7,53.5,87,68,49,30.21,30.03,8,3,13,0.00
2013-10-4,73.6,66.7,60.4,59.3,56.5,53.7,84,70,52,30.25,30.18,8,2,13,0.01
2013-10-5,71.4,66.8,60.2,64.6,60.5,54.5,92,81,60,30.18,30.01,17,4,30,0.39
2013-10-6,75.9,69.0,62.4,67.8,64.5,60.3,95,86,70,30.02,29.94,10,3,17,0.24
2013-10-7,74.2,69.0,63.2,66.1,64.0,60.8,93,84,72,30.08,30.01,9,2,16,0.00
2013-10-8,65.8,65.8,65.8,62.1,62.1,62.1,88,88,88,30.08,30.08,0,0,0,0.00
2013-10-9,69.3,63.3,59.6,64.1,60.1,57.6,94,90,77,30.10,30.00,6,1,14,0.14
2013-10-10,68.7,63.4,56.8,65.6,60.5,55.1,95,90,81,30.03,29.82,9,3,17,0.09
2013-10-11,70.9,65.4,60.9,62.7,59.6,56.1,92,82,69,30.02,29.80,7,2,14,0.02
2013-10-12,74.6,67.5,59.3,66.7,62.1,55.4,90,83,69,30.13,29.96,10,3,17,0.00
2013-10-13,78.0,67.9,59.8,63.0,59.7,57.4,94,77,51,30.15,30.09,8,1,12,0.00
2013-10-14,80.2,67.7,59.6,60.9,57.9,54.0,87,73,44,30.13,30.07,7,2,12,0.00
2013-10-15,72.2,65.8,60.0,65.3,60.5,55.2,91,83,72,30.10,29.91,9,2,13,0.00
2013-10-16,76.9,69.6,62.9,66.8,61.6,57.6,94,77,53,29.91,29.72,14,4,25,0.14
2013-10-17,78.4,65.2,56.4,58.5,52.9,41.7,87,67,28,30.00,29.85,8,1,12,0.00
2013-10-18,76.0,64.4,55.4,62.8,57.3,50.6,89,78,55,30.09,29.99,8,1,12,0.00
2013-10-19,74.5,65.7,59.2,63.1,60.0,56.4,93,83,56,30.23,30.08,10,2,13,0.00
2013-10-20,76.3,66.2,57.9,65.4,59.4,52.8,89,80,64,30.28,30.22,8,2,13,0.00
2013-10-21,76.0,70.0,65.7,66.6,63.8,61.9,91,81,64,30.24,30.19,8,4,20,0.00
2013-10-22,76.2,67.7,61.8,66.8,62.9,59.1,94,85,66,30.21,30.12,9,3,14,0.00
2013-10-23,74.9,68.0,60.9,67.0,63.9,59.2,95,87,70,30.16,30.09,9,3,16,0.00
2013-10-24,71.4,67.6,64.6,64.9,63.6,62.2,94,87,78,30.16,30.08,8,4,16,0.03
2013-10-25,76.4,67.8,61.2,68.1,63.5,58.2,96,86,72,30.18,30.13,6,2,8,0.00
2013-10-26,78.5,68.0,59.5,67.7,63.5,58.4,97,86,64,30.21,30.16,8,1,10,0.01
2013-10-27,74.5,66.5,62.1,65.1,63.3,60.6,96,90,71,30.24,30.17,6,2,9,0.00
2013-10-28,74.1,67.9,63.0,66.8,64.2,60.3,95,88,77,30.18,30.07,10,3,16,0.00
2013-10-29,73.8,67.3,60.5,66.0,63.5,58.5,95,88,75,30.08,29.96,8,3,17,0.01
2013-10-30,75.1,66.5,60.9,64.8,62.1,58.6,93,86,67,30.04,29.92,8,2,12,0.00
2013-10-31,75.4,66.2,59.3,63.3,60.0,57.3,94,81,59,30.14,30.04,8,2,15,0.00
2013-11-1,73.7,64.6,58.0,62.3,58.3,55.0,90,81,62,30.15,30.08,7,2,12,0.00
2013-11-2,71.0,65.5,58.9,64.5,60.8,56.0,93,85,74,30.12,30.01,9,2,18,0.00
2013-11-3,71.6,66.7,63.0,65.1,62.6,60.7,95,87,74,30.05,29.93,13,4,23,0.12
2013-11-4,70.4,66.1,61.0,63.9,59.3,55.6,93,79,61,29.93,29.46,22,4,35,0.02
2013-11-5,67.6,61.6,57.8,59.9,57.4,54.5,96,86,65,29.54,29.37,13,2,17,0.83
2013-11-6,70.2,60.9,52.1,59.4,55.5,50.1,94,83,63,29.89,29.54,9,2,17,0.10
2013-11-7,70.6,62.6,53.0,63.8,58.7,50.8,94,87,76,30.10,29.89,12,3,28,0.02
2013-11-8,71.6,66.3,62.9,65.3,62.1,59.8,91,87,77,30.09,30.05,12,4,20,0.00
2013-11-9,71.1,65.9,62.6,65.4,61.1,57.7,90,85,72,30.05,29.95,12,4,21,0.00
2013-11-10,65.9,61.3,53.0,58.3,55.0,47.3,88,80,66,29.98,29.44,26,6,41,0.03
2013-11-11,57.3,54.1,51.0,50.8,47.9,45.0,91,80,69,29.71,29.40,21,10,37,0.02
2013-11-12,60.5,56.2,52.3,56.5,52.4,48.6,94,87,76,29.94,29.70,10,3,20,0.02
2013-11-13,65.2,58.5,52.6,58.2,53.5,50.3,94,84,72,29.97,29.87,9,4,13,0.02
2013-11-14,70.0,60.9,55.0,57.8,55.1,51.6,89,81,63,29.97,29.85,10,3,14,0.01
2013-11-15,61.4,57.8,54.7,58.1,55.3,52.7,95,92,85,30.00,29.81,9,3,15,0.01
2013-11-16,65.2,59.4,53.5,57.8,54.0,50.4,93,83,69,30.08,29.98,9,3,13,0.04
2013-11-17,67.7,60.7,55.6,57.5,54.3,51.3,92,80,67,30.14,30.06,8,4,18,0.01
2013-11-18,66.3,60.2,52.5,56.6,53.2,50.0,93,78,66,30.07,29.67,13,5,24,0.01
2013-11-19,63.4,57.7,53.2,58.5,52.8,50.7,94,84,66,29.75,29.40,14,4,21,0.00
2013-11-20,61.8,54.9,49.6,57.8,50.3,45.5,95,85,67,29.74,29.29,22,2,35,0.05
2013-11-21,57.7,53.8,48.9,49.3,45.0,40.1,92,73,57,29.73,29.51,14,3,28,0.01
2013-11-22,52.6,49.9,48.0,49.4,46.7,44.7,94,89,79,29.53,29.39,8,2,17,0.01
2013-11-23,49.4,47.4,46.2,47.6,45.3,43.6,94,92,89,29.49,29.39,8,2,18,0.00
2013-11-24,53.3,48.8,45.4,47.3,45.1,42.5,93,87,75,29.71,29.49,7,2,9,0.01
2013-11-25,58.4,47.6,40.8,47.3,39.2,26.6,91,74,50,29.89,29.70,22,8,36,0.01
2013-11-26,47.3,41.9,38.6,33.7,30.9,27.8,74,65,54,30.01,29.89,21,12,41,0.00
2013-11-27,46.3,41.5,38.5,35.8,33.4,30.4,80,73,65,30.27,29.99,14,6,22,0.01
2013-11-28,48.9,42.1,35.2,42.3,36.1,31.5,91,79,65,30.30,30.22,10,6,16,0.00
2013-11-29,58.8,47.8,40.6,44.7,39.7,35.5,87,74,55,30.25,30.08,10,4,14,0.01
2013-11-30,58.4,47.2,38.6,44.1,39.6,35.9,91,76,57,30.08,29.84,7,3,12,0.00
2013-12-1,57.6,54.8,48.4,43.5,41.2,38.5,71,60,52,29.84,29.65,20,11,35,0.00
2013-12-2,67.2,58.7,54.8,54.6,47.0,42.9,80,65,54,30.12,29.72,14,5,26,0.00
2013-12-3,62.7,55.3,49.0,43.2,39.3,35.7,68,56,39,30.22,30.11,13,5,21,0.00
2013-12-4,61.4,50.4,42.4,49.8,41.1,33.1,91,71,58,30.26,30.18,7,2,10,0.00
2013-12-5,58.6,47.3,39.2,46.6,41.1,36.1,91,80,55,30.20,30.12,6,1,9,0.00
2013-12-6,56.8,49.6,41.3,46.4,42.0,37.5,88,76,59,30.12,29.95,7,2,12,0.01
2013-12-7,60.4,50.2,42.0,46.5,43.1,39.2,91,77,59,30.30,29.99,9,2,12,0.00
2013-12-8,61.4,50.5,41.8,50.4,45.1,38.5,89,82,64,30.38,30.29,7,2,15,0.00
2013-12-9,62.4,53.9,48.3,51.3,47.5,44.0,89,79,65,30.42,30.36,7,2,10,0.00
2013-12-10,59.1,50.0,42.9,46.6,43.6,40.2,91,79,62,30.50,30.39,7,2,9,0.01
2013-12-11,61.2,50.7,42.5,53.3,45.6,38.8,93,83,69,30.53,30.48,7,2,9,0.00
2013-12-12,58.6,50.1,45.0,49.4,46.0,42.8,93,86,71,30.49,30.35,10,3,13,0.00
2013-12-13,55.3,46.6,41.9,46.1,42.1,39.1,92,85,70,30.35,30.25,9,4,13,0.00
2013-12-14,52.6,46.0,39.0,46.1,42.4,37.9,96,87,77,30.40,30.31,8,3,12,0.02
2013-12-15,56.8,50.7,45.5,48.8,45.7,41.4,94,83,66,30.48,30.37,13,3,20,0.02
2013-12-16,59.3,48.3,40.5,43.5,40.4,37.0,91,75,51,30.53,30.46,9,3,12,0.00
2013-12-17,60.2,47.2,38.1,48.8,39.9,33.7,89,76,57,30.49,30.39,6,2,10,0.00
2013-12-18,58.6,46.0,37.5,47.0,39.2,32.3,91,78,57,30.39,30.27,7,3,10,0.00
2013-12-19,57.7,47.6,37.1,47.4,41.2,33.5,91,79,65,30.27,30.15,9,4,17,0.00
2013-12-20,57.7,55.0,52.5,53.3,50.1,46.0,93,84,71,30.47,30.14,8,4,18,0.04
2013-12-21,62.8,53.9,48.4,52.9,49.6,46.2,94,86,66,30.57,30.47,6,2,10,0.00
2013-12-22,58.6,51.0,46.1,50.8,47.2,43.8,93,87,74,30.53,30.39,6,2,8,0.00
2013-12-23,57.2,47.8,39.8,48.7,44.3,38.2,99,88,72,30.39,30.25,7,2,9,0.01
2013-12-24,57.5,47.4,37.7,50.0,44.1,36.7,97,89,74,30.24,30.09,6,2,12,0.01
2013-12-25,58.5,55.0,50.1,53.9,49.8,46.0,89,82,78,30.09,29.61,15,8,31,0.00
2013-12-26,60.2,55.4,49.9,56.1,50.0,44.4,93,82,68,29.60,29.35,22,8,48,0.31
2013-12-27,58.7,50.3,45.1,48.5,45.4,42.3,91,84,68,29.89,29.47,6,1,9,0.00
2013-12-28,58.4,50.4,43.1,49.9,46.1,40.7,92,86,71,30.04,29.89,7,2,12,0.00
2013-12-29,58.4,54.7,51.6,53.8,51.1,48.4,93,88,76,30.11,30.02,9,4,18,0.01
2013-12-30,52.9,50.0,48.1,50.3,47.4,45.3,100,91,84,30.17,30.09,10,4,15,0.28
2013-12-31,58.6,50.6,46.5,48.2,45.7,43.0,95,83,67,30.11,30.05,8,3,12,0.00
2014-1-1,58.9,49.2,43.9,47.4,42.9,39.1,90,79,64,30.12,30.05,7,1,9,0.00
2014-1-2,55.7,50.1,41.4,51.6,45.9,38.7,91,85,77,30.11,30.03,8,3,17,0.01